This is the latest recevied weather packets stored in our database for station/object OK2ILA-13. If no packets are shown the sender has not sent any weather packets the latest 10 day(s).
| Time | Temp. | Humidity | Pressure | Rain* | Wind** | Luminosity | Snow |
|---|---|---|---|---|---|---|---|
| 1777690469 | 8.89° C | 52% | 1024.8 hPa | - | - | - | - |
| 1777689869 | 9.44° C | 51% | 1024.7 hPa | - | - | - | - |
| 1777689270 | 9.44° C | 51% | 1024.8 hPa | - | - | - | - |
| 1777688670 | 9.44° C | 51% | 1024.9 hPa | - | - | - | - |
| 1777688070 | 9.44° C | 51% | 1024.8 hPa | - | - | - | - |
| 1777668879 | 11.11° C | 46% | 1025.5 hPa | - | - | - | - |
| 1777667680 | 11.11° C | 46% | 1025.5 hPa | - | - | - | - |
| 1777667269 | 11.11° C | 46% | 1025.5 hPa | - | - | - | - |
| 1777665881 | 11.67° C | 44% | 1025.5 hPa | - | - | - | - |
| 1777662831 | 12.78° C | 42% | 1025.3 hPa | - | - | - | - |
| 1777662505 | 12.78° C | 42% | 1025.3 hPa | - | - | - | - |
| 1777659832 | 13.33° C | 41% | 1024.9 hPa | - | - | - | - |
| 1777659233 | 13.33° C | 40% | 1025 hPa | - | - | - | - |
| 1777658633 | 13.33° C | 41% | 1025 hPa | - | - | - | - |
| 1777655634 | 14.44° C | 39% | 1024.8 hPa | - | - | - | - |
| 1777653234 | 15° C | 37% | 1024.9 hPa | - | - | - | - |
| 1777652634 | 15.56° C | 37% | 1025 hPa | - | - | - | - |
| 1777652035 | 15.56° C | 37% | 1025.2 hPa | - | - | - | - |
| 1777651435 | 15.56° C | 37% | 1025.1 hPa | - | - | - | - |
| 1777650835 | 15.56° C | 38% | 1025.1 hPa | - | - | - | - |
| 1777649636 | 15.56° C | 37% | 1025.3 hPa | - | - | - | - |
| 1777649036 | 15.56° C | 38% | 1025.2 hPa | - | - | - | - |
| 1777647836 | 15.56° C | 38% | 1025.5 hPa | - | - | - | - |
| 1777646637 | 16.11° C | 36% | 1025.4 hPa | - | - | - | - |
| 1777646037 | 15.56° C | 36% | 1025.5 hPa | - | - | - | - |
* Rain since midnight (hover to see other rain measurements)
** Current wind speed in m/s (hover to see current wind gust speed)